Regional Weather Roundup
Issued by NWS

Home | Current Version | Previous Version | Text Only | Print | Product List | Glossary Off
Versions: 1 2 3 4 5 6 7 8 9 10 11 12 13 14 15 16 17 18 19 20 21 22 23 24 25 26 27 28 29 30 31 32 33 34 35 36 37 38 39 40 41 42 43 44 45 46 47 48 49 50

000
ASUS43 KLOT 260200
RWRIL

ILLINOIS REGIONAL WEATHER ROUNDUP
NATIONAL WEATHER SERVICE CHICAGO/ROMEOVILLE IL
900 PM CDT FRI JUL 25 2014

NOTE: "FAIR" INDICATES FEW OR NO CLOUDS BELOW 12,000 FEET WITH NO
SIGNIFICANT WEATHER AND/OR OBSTRUCTIONS TO VISIBILITY.

* THESE STATIONS ARE NOT UNDER NWS QUALITY CONTROL. THEY ALSO MAY NOT
  REPORT WEATHER SUCH AS PRECIPITATION OR FOG.

ILZ001-002-007-009-015-016-024-260300-
NORTHWEST ILLINOIS

CITY           SKY/WX    TMP DP  RH WIND       PRES   REMARKS
MOLINE         CLOUDY    70  65  84 E10       29.87F
STERLING*      CLOUDY    66  61  82 SE7       29.92S
$$

ILZ003-004-008-010-011-017-018-260300-
NORTH CENTRAL ILLINOIS

CITY           SKY/WX    TMP DP  RH WIND       PRES   REMARKS
ROCKFORD       CLOUDY    68  59  73 S9        29.94R
FREEPORT*      CLOUDY    64  60  88 S9        29.94S
$$

ILZ005-006-012>014-019>023-260300-
NORTHEAST ILLINOIS

CITY           SKY/WX    TMP DP  RH WIND       PRES   REMARKS
CHICAGO-OHARE  CLOUDY    72  57  59 SW9       29.93R
CHICAGO-MIDWAY MOCLDY    73  60  63 SW7       29.93S
AURORA         CLOUDY    69  59  70 S8        29.94R
WAUKEGAN       CLEAR     67  58  72 SW3       29.92R
DUPAGE AIRPORT CLOUDY    70  60  70 S7        29.93R
WHEELING       MOCLDY    72  59  63 SW7       29.93S
NORTHERLY ISL    N/A     72  58  61 S6          N/A
$$

LMZ740>746-260300-
SOUTHERN LAKE MICHIGAN

STATION/POSITION SKY/WX   TEMP    WIND        PRES    VSBY  WAVE
                          AIR SEA DIR/SP/G                  HT/PER
                          (F)     (DEG/KT/KT) (MB)    (MI)  (FT/S)
SOUTHERN BUOY              65 62  180/ 10/ 10 1013.2F         1
WAUKEGAN HARBOR            70     230/  6/  9   N/A
HARRISON CRIB              71     190/ 16/ 17   N/A
BURNHAM HARBOR             72     180/  6/ 13   N/A
CALUMET HARBOR             71     190/  5/  8 1012.4R
MICHIGAN CITY              71     150/  8/ 12   N/A
MICHIGAN CITY 6N           69 68  170/ 10/ 12   N/A           1/ 2
ST. JOSEPH                 68 66  160/  8/ 10   N/A           1/ 3
$$

ILZ025>027-034>036-040-047-049-050-058-095>099-260300-
WEST-CENTRAL ILLINOIS

CITY           SKY/WX    TMP DP  RH WIND       PRES   REMARKS
QUINCY         PTCLDY    72  64  76 SE8       29.86R
GALESBURG*     CLOUDY    70  64  81 E7        29.89S
MACOMB*        CLOUDY    70  63  79 SE8       29.89S
$$

ILZ028>032-037-038-041>044-048-051>054-059>061-260300-
CENTRAL ILLINOIS

CITY           SKY/WX    TMP DP  RH WIND       PRES   REMARKS
DECATUR        CLOUDY    67  62  84 SE7       29.95S
PEORIA         CLOUDY    71  61  70 E8        29.91S
SPRINGFIELD    CLOUDY    72  62  71 SE8       29.92S
TAYLORVILLE    NOT AVBL
$$

ILZ033-039-045-046-055>057-062-063-260300-
EAST-CENTRAL ILLINOIS

CITY           SKY/WX    TMP DP  RH WIND       PRES   REMARKS
CHAMPAIGN      CLOUDY    66  62  87 E6        29.97F
MATTOON        CLEAR     65  61  87 CALM      29.97R
$$

ILZ079-100>102-260300-
SOUTHWEST ILLINOIS

CITY           SKY/WX    TMP DP  RH WIND       PRES   REMARKS
ALTON          CLEAR     68  66  94 E5        29.91R
BELLEVILLE     CLEAR     68  65  88 E2        29.90R
CAHOKIA*       CLEAR     74  64  71 SE6       29.88S
SPARTA*        CLEAR     72  63  73 S3        29.93R
$$

ILZ064>066-069>071-074>076-080>082-084>086-088>090-092>094-260300-
SOUTH-CENTRAL ILLINOIS

CITY           SKY/WX    TMP DP  RH WIND       PRES   REMARKS
CARBONDALE     PTCLDY    70  62  76 S5        29.93R
MT. VERNON       N/A     68  59  73 CALM      29.95R VSB 1/4
SALEM*         CLEAR     70  65  84 E3        29.95R
$$

ILZ067-068-072-073-078-083-087-091-260300-
SOUTHEAST ILLINOIS

CITY           SKY/WX    TMP DP  RH WIND       PRES   REMARKS
LAWRENCEVILLE  CLEAR     66  63  90 E5        29.97S
HARRISBURG*    PTCLDY    67  65  93 E3        29.96S
ROBINSON*      CLEAR     66  62  86 CALM      29.98R
CARMI*         CLEAR     66  64  94 E5        29.96R
$$

ABBREVIATIONS USED IN REMARKS
   TC - TEMPERATURE IN CELSIUS
  WCI - WIND CHILL INDEX
   HX - HEAT INDEX
  VSB - VISIBILITY
$$




USA.gov is the U.S. government's official web portal to all federal, state and local government web resources and services.